EW4925 Weather Reports


Display with metric or nautical units.
time (UTC)temp
F
wind
direction
speed
MPH
gust
MPH
rain 1hr
in
rain 24hr
in
rain mn
in
humidity
%
barometer
mb
20260505021115 50 248 1.0 9.0 0.00 0.02 0.02 72
20260505015608 50 82 0.0 0.0 0.00 0.02 0.02 70
20260505014110 50 78 10.0 15.0 0.01 0.02 0.02 68
20260505012610 50 71 8.0 17.0 0.01 0.02 0.02 67
20260505011109 51 42 7.0 13.0 0.01 0.02 0.02 66
20260505005609 53 341 0.0 14.0 0.01 0.02 0.02 65
20260505004107 54 342 1.0 15.0 0.00 0.01 0.01 57
20260505002607 55 100 11.0 17.0 0.00 0.01 0.01 50
20260505001108 56 91 12.0 20.0 0.00 0.01 0.01 47
20260504235607 58 87 14.0 19.0 0.00 0.01 0.01 45
20260504234838 60 104 9.0 17.0 0.00 0.01 0.01 42
20260504232607 62 113 14.0 23.0 0.00 0.01 0.01 40
20260504231112 60 120 2.0 11.0 0.01 0.01 0.01 39
20260504231108 62 335 2.0 14.0 0.01 0.01 0.01 39
20260504224107 57 162 5.0 14.0 0.01 0.01 0.01 44
20260504222608 58 34 13.0 25.0 0.01 0.01 0.01 52
20260504221106 61 290 6.0 17.0 0.00 0.00 0.00 37
20260504215608 62 304 10.0 17.0 0.00 0.00 0.00 35
20260504214101 64 322 4.0 17.0 0.00 0.00 0.00 31
20260504212601 65 313 1.0 12.0 0.00 0.00 0.00 33
20260504211102 62 40 7.0 17.0 0.00 0.00 0.00 38
20260504210332 60 96 16.0 22.0 0.00 0.00 0.00 47
20260504204102 56 80 16.0 25.0 0.00 0.00 0.00 58
20260504202555 54 93 17.0 25.0 0.00 0.00 0.00 56
20260504201100 60 69 11.0 23.0 0.00 0.00 0.00 37
20260504201055 56 93 17.0 26.0 0.00 0.00 0.00 47
20260504194054 63 325 6.0 14.0 0.00 0.00 0.00 34
20260504192555 63 330 4.0 21.0 0.00 0.00 0.00 33
20260504191055 65 315 13.0 23.0 0.00 0.00 0.00 32
20260504185556 61 299 12.0 23.0 0.00 0.00 0.00 35
20260504184825 63 269 13.0 23.0 0.00 0.00 0.00 33
20260504184208 63 286 8.0 16.0 0.00 0.00 0.00 32
20260504182709 64 277 5.0 11.0 0.00 0.00 0.00 31
20260504175555 65 316 3.0 14.0 0.00 0.00 0.00 31
20260504174055 63 280 9.0 17.0 0.00 0.00 0.00 35
20260504172554 62 243 8.0 28.0 0.00 0.00 0.00 37
20260504171054 60 287 8.0 17.0 0.00 0.00 0.00 37
20260504151100 53 244 0.0 7.0 0.00 0.00 0.00 52
20260504151055 54 209 0.0 1.0 0.00 0.00 0.00 53
20260504141054 50 138 0.0 1.0 0.00 0.00 0.00 55
20260504110310 48 148 11.0 16.0 0.00 0.00 0.00 63
20260504081029 51 209 10.0 24.0 0.00 0.00 0.00 51
20260504045524 56 137 0.0 10.0 0.00 0.00 0.00 28
20260504044023 56 123 9.0 11.0 0.00 0.00 0.00 28
20260504042523 56 132 9.0 11.0 0.00 0.00 0.00 29
20260504041021 55 116 1.0 8.0 0.00 0.00 0.00 29
20260504035520 55 130 0.0 4.0 0.00 0.00 0.00 30
20260504034018 55 121 0.0 0.0 0.00 0.00 0.00 29
20260504032517 56 115 0.0 8.0 0.00 0.00 0.00 28
20260504031015 59 134 0.0 10.0 0.00 0.00 0.00 26
20260504025513 59 167 3.0 10.0 0.00 0.00 0.00 26
20260504024013 60 162 0.0 7.0 0.00 0.00 0.00 24